Location: Ammerl�gen
(47.2167°N, 9.6000°E)
Time: 12:29:31
(UTC+00:00)

CZ-4 R/B DEB - Pass Details

Date: 24 October 2021
Orbit: 738 x 791 km, 98.5° (Epoch: 26 November)

Event Time Altitude Azimuth Distance (km) Brightness Sun altitude
Exits shadow 20:37:31 11° 286° (WNW) 2,216 ? -43.1°
Drops below altitude 10° 20:37:55 10° 290° (WNW) 2,253 ? -43.2°
Sets 20:42:10 0° 326° (NW) 3,188 ? -43.7°
